• MPC Preparation (Info)

  • MPEC 2019-N78 : 2019 NY1

    The following Minor Planet Electronic Circular may be linked-to from your own Web pages, but must not otherwise be redistributed electronically.

    A form allowing access to any MPEC is at the bottom of this page.


    Read MPEC 2019-N77 Read MPEC 2019-N79


    M.P.E.C. 2019-N78                                Issued 2019 July 5, 18:30 UT  
    
         The Minor Planet Electronic Circulars contain information on unusual
             minor planets and routine data on comets.  They are published
        on behalf of Division F of the International Astronomical Union by the
              Minor Planet Center, Smithsonian Astrophysical Observatory,
                              Cambridge, MA 02138, U.S.A.
    
                 Prepared using the Tamkin Foundation Computer Network
    
                                  MPC@CFA.HARVARD.EDU
                URL https://www.minorplanetcenter.net/    ISSN 1523-6714
    
                                    2019 NY1                                 
    
    Observations:
         K19N01Y* C2019 07 03.47127616 53 24.292+24 35 02.00         19.4 GVEN078F52
         K19N01Y  C2019 07 03.48344116 53 46.716+24 30 17.07         19.0 GVEN078F52
         K19N01Y  C2019 07 03.49564916 54 09.181+24 25 31.58         19.6 GVEN078F52
         K19N01Y  C2019 07 04.19251 17 16 27.06 +19 49 58.6          19.2 GVEN078I52
         K19N01Y  C2019 07 04.19276 17 16 27.45 +19 49 51.8          19.2 GVEN078I52
         K19N01Y  C2019 07 04.19300 17 16 27.90 +19 49 46.3          19.5 GVEN078I52
         K19N01Y  C2019 07 04.19324 17 16 28.30 +19 49 40.5          19.0 GVEN078I52
         K19N01Y  C2019 07 04.32870417 20 20.35 +18 54 22.5          19.1 GVEN078H01
         K19N01Y  C2019 07 04.33217217 20 26.33 +18 52 56.9          19.5 GVEN078H01
         K19N01Y  C2019 07 04.34594317 20 50.13 +18 47 15.8          19.1 GVEN078H01
         K19N01Y  C2019 07 04.35019017 20 57.47 +18 45 30.6          19.3 GVEN078H01
         K19N01Y  C2019 07 04.44080 17 23 45.009+18 09 52.44         19.2 wUEN078F52
         K19N01Y  C2019 07 04.45301 17 24 05.614+18 04 49.72         19.3 wUEN078F52
         K19N01Y  C2019 07 04.46521 17 24 26.215+17 59 47.05         19.1 wUEN078F52
         K19N01Y  C2019 07 04.47738 17 24 46.809+17 54 44.44         19.4 wUEN078F52
         K19N01Y  C2019 07 04.89233 17 37 10.68 +15 02 04.9                VEN078246
         K19N01Y  C2019 07 04.89244 17 37 10.89 +15 02 02.1                VEN078246
         K19N01Y  C2019 07 04.89256 17 37 11.07 +15 01 59.3                VEN078246
         K19N01Y  C2019 07 04.89267 17 37 11.24 +15 01 56.5                VEN078246
         K19N01Y  C2019 07 04.89308 17 37 11.89 +15 01 46.7                VEN078246
         K19N01Y  C2019 07 04.89453 17 37 14.27 +15 01 10.1                VEN078246
         K19N01Y  C2019 07 04.89476 17 37 14.69 +15 01 05.2                VEN078246
         K19N01Y  C2019 07 04.89487 17 37 14.90 +15 01 02.8                VEN078246
         K19N01Y  C2019 07 04.89499 17 37 15.01 +15 00 59.0                VEN078246
         K19N01Y  C2019 07 04.89510 17 37 15.16 +15 00 57.1                VEN078246
         K19N01Y KC2019 07 04.89551417 37 17.21 +15 00 59.0          18.5 GVEN078587
         K19N01Y KC2019 07 04.89627017 37 18.45 +15 00 40.6          18.4 GVEN078587
         K19N01Y  C2019 07 04.89868 17 37 21.65 +14 59 18.4          18.7 VVEN078033
         K19N01Y  C2019 07 04.89925 17 37 22.54 +14 59 04.5          19.0 VVEN078033
         K19N01Y  C2019 07 04.90056 17 37 24.73 +14 58 32.3          19.4 VVEN078033
         K19N01Y KC2019 07 04.90107 17 37 23.62 +14 58 33.6          18.8 RoEN078K88
         K19N01Y KC2019 07 04.90491 17 37 29.89 +14 56 59.2          19.0 RoEN078K88
         K19N01Y KC2019 07 04.90875 17 37 36.16 +14 55 23.9          19.1 RoEN078K88
         K19N01Y IC2019 07 04.91260617 37 44.02 +14 54 01.2          19.4 GVEN078L01
         K19N01Y IC2019 07 04.91427817 37 46.70 +14 53 20.0          19.3 GVEN078L01
         K19N01Y IC2019 07 04.91563117 37 48.87 +14 52 45.5          19.4 GVEN078L01
         K19N01Y IC2019 07 04.91646417 37 50.26 +14 52 25.3          19.5 GVEN078L01
         K19N01Y  C2019 07 04.91836 17 37 53.86 +14 51 13.3          18.8 VVEN078033
         K19N01Y  C2019 07 04.91892 17 37 54.77 +14 50 59.5          19.2 VVEN078033
         K19N01Y  C2019 07 04.91948 17 37 55.73 +14 50 45.4          18.6 VVEN078033
         K19N01Y  C2019 07 04.92005 17 37 56.64 +14 50 31.7          18.8 VVEN078033
         K19N01Y  C2019 07 04.92061 17 37 57.56 +14 50 17.5          20.1 VVEN078033
         K19N01Y KC2019 07 04.99079 17 39 52.24 +14 21 44.2                VEN078204
         K19N01Y KC2019 07 04.99589 17 40 00.53 +14 19 37.7          19.3 GVEN078204
         K19N01Y HC2019 07 05.00102 17 40 08.85 +14 17 30.6                VEN078204
         K19N01Y  C2019 07 05.22721 17 46 40.32 +12 45 49.3          19.5 GVEN078I52
         K19N01Y  C2019 07 05.22740 17 46 40.60 +12 45 44.4          19.5 GVEN078I52
         K19N01Y  C2019 07 05.22758 17 46 40.88 +12 45 40.2          19.8 GVEN078I52
         K19N01Y KC2019 07 05.27752 17 47 58.78 +12 24 37.3          19.1 GVEN078V01
         K19N01Y KC2019 07 05.28185 17 48 05.53 +12 22 50.3          19.0 GVEN078V01
         K19N01Y KC2019 07 05.28595 17 48 11.91 +12 21 10.7          20.1 GVEN078V01
         K19N01Y KC2019 07 05.29505 17 48 25.99 +12 17 26.6          20.1 GVEN078V01
    
    Observer details:
    033 Karl Schwarzschild Observatory, Tautenburg.  Observers C. Hoegner,
        B. Stecklum.  Measurer B. Stecklum.  1.34-m f/3 Schmidt + CCD.
    204 Schiaparelli Observatory.  Observer L. Buzzi.  0.84-m f/3.5 reflector + CCD.
    246 Klet Observatory-KLENOT.  Observers M. Tichy, J. Ticha.  
        Measurer M. Tichy.  1.06-m f/2.7 reflector + 2048x2048 CCD.
    587 Sormano.  Observers A. Fumagalli, P. Sicoli, A. Testa.  
        Measurer P. Sicoli.  0.5-m f/6.8 reflector + CCD.
    F52 Pan-STARRS 2, Haleakala.  Observers J. Bulger, K. Chambers, T. Dukes,
        T. Lowe, E. Magnier, A. Schultz, M. Willman.  Measurers S. Chastel,
        M. Huber, Y. Ramanjooloo, R. Wainscoat, R. Weryk, K. Chambers, T. de Boer,
        L. Denneau, J. Fairlamb, H. Flewelling, C.-C. Lin, E. Magnier.  
        1.8-m Ritchey-Chretien + CCD.
    H01 Magdalena Ridge Observatory, Socorro.  Observers W. H. Ryan, E. V. Ryan.  
        Measurer W. H. Ryan.  2.4-m f/8.9 Ritchey-Chretien + CCD.
    I52 Steward Observatory, Mt. Lemmon Station.  Observers D. Rankin,
        G. J. Leonard.  Measurers B. M. Africano, E. J. Christensen, G. A. Farneth,
        D. C. Fuls, A. R. Gibbs, A. D. Grauer, H. Groeller, R. A. Kowalski,
        S. M. Larson, G. J. Leonard, T. A. Pruyne, D. Rankin, R. L. Seaman,
        F. C. Shelly.  1.0-m reflector + CCD.
    K88 GINOP-KHK, Piszkesteto.  Observer K. Sarneczky.  0.60-m Schmidt + CCD.
    L01 Visnjan Observatory, Tican.  Observer K. Korlevic.  
        1.0-m f/2.9 reflector + CCD.
    V01 Mountainville Observatory, Alpine.  Observer B. Sheets.  
        0.35-m f/7.7 Schmidt-Cassegrain + CCD.
    
    Orbital elements:
    2019 NY1                                                 Earth MOID = 0.0263 AU
    Epoch 2019 Apr. 27.0 TT = JDT 2458600.5                 MPC
    M 342.35143              (2000.0)            P               Q
    n   0.43525633     Peri.  138.52412     -0.35373884     +0.92913026
    a   1.7244052      Node   110.50774     -0.88559135     -0.29566576
    e   0.4268264      Incl.    6.59903     -0.30099301     -0.22203315
    P   2.26           H   25.4           G   0.15           U   7
    Residuals in seconds of arc
    190703 F52  0.1-  0.1+    190704 246  0.1+  0.0     190704 L01  0.0   0.3-
    190703 F52  0.5+  0.4-    190704 246  0.3-  0.3+    190704 033  0.3-  0.0
    190703 F52  0.4-  0.4+    190704 246  0.2-  0.6-    190704 033  0.4-  0.0
    190704 I52  0.4+  0.6+    190704 246  0.4+  0.2+    190704 033  0.2+  0.2-
    190704 I52  0.2-  0.1-    190704 246  0.9+  0.5+    190704 033  0.1-  0.1+
    190704 I52  0.3+  0.1+    190704 246  0.4-  0.3-    190704 033  0.0   0.2-
    190704 I52  0.1+  0.1+    190704 246  0.8-  0.5+    190704 204  0.4-  0.0
    190704 H01  0.0   0.1-    190704 587  0.8-  0.2-    190704 204  0.2-  0.0
    190704 H01  0.0   0.0     190704 587  0.7-  0.0     190705 204  0.3-  0.2+
    190704 H01  0.0   0.2-    190704 033  0.3+  0.4-    190705 I52  0.0   0.3+
    190704 H01  0.1-  0.2-    190704 033  0.4-  0.3-    190705 I52  0.3-  0.1+
    190704 F52  0.2+  0.3-    190704 033  0.2+  0.2-    190705 I52  0.3-  0.3+
    190704 F52  0.2+  0.3-    190704 K88  0.1+  0.1-    190705 V01  0.6+  0.2+
    190704 F52  0.0   0.1-    190704 K88  0.1+  0.4+    190705 V01  0.8+  0.6-
    190704 F52  0.1-  0.0     190704 K88  0.0   0.0     190705 V01  0.8+  0.5+
    190704 246  0.0   0.0     190704 L01  0.6+  0.4+    190705 V01  0.2-  0.2-
    190704 246  0.4+  0.1-    190704 L01  0.0   0.4+
    190704 246  0.2+  0.1+    190704 L01  0.5-  0.6-
    
    Ephemeris:
    2019 NY1                 a,e,i = 1.72, 0.43, 7                   q = 0.9884
    Date    TT    R. A. (2000) Decl.     Delta      r    Elong.  Phase     V
    2019 06 05    10 54 16.4 +44 02 29   0.1399  0.9885    75.4    96.8    24.6
    ...
    2019 06 20    12 04 14.2 +46 10 16   0.07403 1.0000    75.4   100.5    23.4
    ...
    2019 06 28    14 04 18.9 +44 19 56   0.04146 1.0174    89.9    87.7    21.6
    ...
    2019 07 04    17 10 22.6 +21 08 52   0.02845 1.0351   129.7    49.1    19.6
    2019 07 05    17 40 12.4 +14 21 00   0.02869 1.0385   138.6    40.3    19.4
    2019 07 06    18 07 04.2 +07 37 38   0.02976 1.0419   147.1    32.0    19.2
    ...
    2019 07 12    19 49 07.4 -18 27 39   0.04805 1.0643   172.9     6.8    19.5
    ...
    2019 07 20    20 41 34.2 -29 09 07   0.08482 1.0989   166.6    12.4    21.0
    ...
    2019 08 04    21 10 51.8 -33 44 24   0.1663  1.1750   163.3    14.4    22.7
    
    A. U. Tomatic                (C) Copyright 2019 MPC           M.P.E.C. 2019-N78
    


    Read MPEC 2019-N77 Read MPEC 2019-N79


    MPEC number:

    Enter an MPEC number in one of the following forms:

    • 1997-B01 (the full form)
    • J97B01 (the packed version of the full form)
    • B01 (the abbreviated form)